TimeCST,TemperatureF,Dew PointF,Humidity,Sea Level PressureIn,VisibilityMPH,Wind Direction,Wind SpeedMPH,Gust SpeedMPH,PrecipitationIn,Events,Conditions,WindDirDegrees,DateUTC
12:53 AM,21.0,10.0,63,30.48,10.0,NNE,9.2,-,N/A,,Clear,20,2013-02-01 06:53:00
1:53 AM,19.9,8.1,60,30.48,10.0,NE,8.1,-,N/A,,Clear,50,2013-02-01 07:53:00
2:53 AM,19.0,3.9,52,30.50,10.0,NE,6.9,-,N/A,,Clear,40,2013-02-01 08:53:00
3:53 AM,19.0,3.9,52,30.50,10.0,NE,5.8,-,N/A,,Clear,40,2013-02-01 09:53:00
4:53 AM,18.0,3.0,52,30.48,10.0,ENE,4.6,-,N/A,,Clear,70,2013-02-01 10:53:00
5:53 AM,17.1,3.9,56,30.49,10.0,East,3.5,-,N/A,,Clear,90,2013-02-01 11:53:00
6:53 AM,17.1,5.0,59,30.49,10.0,East,4.6,-,N/A,,Clear,80,2013-02-01 12:53:00
7:53 AM,18.0,7.0,62,30.50,10.0,ENE,3.5,-,N/A,,Clear,70,2013-02-01 13:53:00
8:53 AM,21.0,8.1,57,30.51,10.0,ESE,4.6,-,N/A,,Clear,110,2013-02-01 14:53:00
9:53 AM,25.0,9.0,51,30.49,10.0,SE,6.9,-,N/A,,Partly Cloudy,130,2013-02-01 15:53:00
10:53 AM,28.0,8.1,43,30.48,10.0,ESE,6.9,-,N/A,,Partly Cloudy,120,2013-02-01 16:53:00
11:53 AM,34.0,8.1,34,30.44,10.0,SE,9.2,-,N/A,,Partly Cloudy,140,2013-02-01 17:53:00
12:53 PM,35.6,8.6,33,30.37,10.0,South,8.1,-,N/A,,Partly Cloudy,180,2013-02-01 18:53:00
1:53 PM,39.2,12.2,33,30.32,10.0,SE,11.5,17.3,N/A,,Partly Cloudy,140,2013-02-01 19:53:00
2:53 PM,41.0,15.1,35,30.28,10.0,South,12.7,19.6,N/A,,Partly Cloudy,170,2013-02-01 20:53:00
3:53 PM,43.0,16.0,34,30.25,10.0,SSE,13.8,-,N/A,,Partly Cloudy,160,2013-02-01 21:53:00
4:53 PM,43.0,17.1,35,30.22,10.0,SE,12.7,-,N/A,,Clear,140,2013-02-01 22:53:00
5:53 PM,39.9,18.0,41,30.19,10.0,SE,9.2,19.6,N/A,,Clear,140,2013-02-01 23:53:00
6:53 PM,37.0,18.0,46,30.21,10.0,Calm,Calm,-,N/A,,Clear,0,2013-02-02 00:53:00
7:53 PM,30.9,19.0,61,30.22,10.0,North,4.6,-,N/A,,Clear,350,2013-02-02 01:53:00
8:53 PM,30.9,19.0,61,30.24,10.0,East,3.5,-,N/A,,Clear,90,2013-02-02 02:53:00
9:53 PM,34.0,19.9,56,30.25,10.0,Calm,Calm,-,N/A,,Clear,0,2013-02-02 03:53:00
10:53 PM,32.0,19.9,61,30.24,10.0,SSE,3.5,-,N/A,,Clear,160,2013-02-02 04:53:00
11:53 PM,32.0,21.0,64,30.22,10.0,South,8.1,-,N/A,,Clear,190,2013-02-02 05:53:00